FENGYUN 1C DEB, 31783

Orbit data source: Space-Track

FENGYUN 1C DEB, 31783 is space debris in SSO originally from a launch on Mon, 10 May 1999 UTC launched from the Taiyaun Space Center, China (TSC). Fengyun 1C debris stems from the Chinese weather satellite Fengyun-1C, which was intentionally destroyed by a Chinese anti-satellite missile in 2007. This event dramatically increased the amount of space debris, with thousands of trackable fragments posing hazards to satellites and human spaceflight. The Fengyun 1C debris cloud has become a focal point in discussions about space sustainability and the need for international regulations to prevent the creation of new debris.

Loading next visibility...
Identifier
31783, 1999-025CGJ
Orbit
SSO
Country
Flag of CNCN / PRC
Related business
Manufacturer
Unknown
Mission
Spacecraft
Bus & Motor
Unknown
Mass
Unknown
Launch date (UTC)
1999-05-10 (27 years ago)
Launch vehicle
Unknown
Launch site
Taiyaun Space Center, China (TSC)
Object type
Payload
Rocket body
Debris
Shape & HBR
Unknown shape, 0.1 m
Radar Cross Section
Small (<0.1 m²)

Expand to show TLE details & history
Last TLE update: 5 days ago

TLE from 5 days ago
0 FENGYUN 1C DEB
1 31783U 99025CGJ 26250.95091410  .00000592  00000-0  34657-3 0  9995
2 31783  98.6069 252.6044 0103110   6.0657  24.2837 14.09293511930121
Epoch: 2026-09-07T22:49Z
TLE epoch observation values (Epoch: 2026-09-07T22:49:18.978Z)
Latitude
30.51091°
Longitude
-81.83904°
Altitude
797.69 km
Speed
7.492 km/s
True Right ascension
16h 30m 03s
True Declination
30° 21' 42"
Sunlit
Object was in daylight at epoch
Visualization orbit readout
Latitude
Unknown
Longitude
Unknown
Altitude
Unknown
Speed
Unknown
Apparent Right ascension
Unknown
Apparent Declination
Unknown
Sunlit
N/A
Visualization observer readout
Local Sidereal Time
21:46:11
Azimuth
Unknown
Elevation
Unknown
Doppler factor
Unknown
Orbital elements
Apogee altitude
933.58 km
Perigee altitude
784.336 km
Semi-major axis
7,237.095 km
Eccentricity
0.01031
Inclination
98.6069°
RAAN
252.6044°
Arg. of periapsis
6.0657°
True anomaly
24.77539°
Mean anomaly
24.2837°
Eccentric anomaly
24.52896°
Mean motion
3.52531 °/min
Orbital period
102.12 mins
BSTAR
0.00034657
Loading maneuver chart data...
Computing Atmospheric mass density...

Documentation

Showing up to 5 results
|